Location: Melizzano
(41.1500°N, 14.5000°E)
Time: 13:48:37
(UTC+00:00)

DELTA 2 R/B (1) - Pass Details

Date: 11 May 2021
Orbit: 790 x 802 km, 39.6° (Epoch: 19 June)

Event Time Altitude Azimuth Distance (km) Brightness Sun altitude
Rises 19:01:00 0° 278° (W) 3,291 8.1 -9.2°
Reaches altitude 10° 19:03:31 10° 274° (W) 2,358 7.0 -9.6°
Maximum altitude 19:08:57 56° 197° (SSW) 934 3.8 -10.5°
Enters shadow 19:13:28 15° 122° (ESE) 2,028 5.0 -11.2°
